Location: Asheville, NC
(35.6000°N, 82.5500°W)
Time: 00:13:34
(UTC-04:00)

Vanguard 1 - Visible Passes

Search period start: 23 October 2017 00:00
Search period end: 02 November 2017 00:00
Orbit: 650 x 3834 km, 34.3° (Epoch: 21 October)

Date Brightness Start Highest point End Pass type
(mag) Time Alt. Az. Time Alt. Az. Time Alt. Az.
23 Oct 12.9 02:29:55 48° E 02:29:55 48° E 02:44:27 10° E visible
23 Oct 12.4 04:42:38 58° W 04:48:38 82° SSW 05:12:36 10° ESE visible
23 Oct 13.2 06:55:21 11° WNW 07:15:23 55° SSW 07:36:29 10° SE visible
24 Oct 14.0 00:37:06 11° ENE 00:37:06 11° ENE 00:37:22 10° ENE visible
24 Oct 12.7 02:49:50 56° E 02:49:50 56° E 03:06:27 10° E visible
24 Oct 12.5 05:02:33 49° W 05:10:21 76° SSW 05:34:06 10° ESE visible
24 Oct 13.3 07:16:34 10° WNW 07:36:35 47° SW 07:56:47 10° SSE visible
25 Oct 13.9 00:57:03 15° E 00:57:03 15° E 00:59:20 10° E visible
25 Oct 12.5 03:09:47 65° E 03:09:47 65° E 03:28:26 10° E visible
25 Oct 12.6 05:22:30 41° W 05:31:58 70° SSW 05:55:22 10° SE visible
26 Oct 13.7 01:17:02 19° E 01:17:02 19° E 01:21:18 10° E visible
26 Oct 12.4 03:29:46 74° ESE 03:29:46 74° ESE 03:50:20 10° ESE visible
26 Oct 12.8 05:42:30 34° W 05:53:28 62° SSW 06:16:22 10° SE visible
27 Oct 13.6 01:37:04 24° E 01:37:04 24° E 01:43:18 10° E visible
27 Oct 12.3 03:49:48 79° SSE 03:49:48 79° SSE 04:12:07 10° ESE visible
27 Oct 12.9 06:02:32 27° W 06:14:52 54° SSW 06:37:03 10° SE visible
28 Oct 13.4 01:57:08 29° E 01:57:08 29° E 02:05:20 10° E visible
28 Oct 12.3 04:09:52 75° SSW 04:10:20 75° SSW 04:33:42 10° ESE visible
28 Oct 13.1 06:22:36 21° W 06:36:10 45° SW 06:57:22 10° SSE visible
29 Oct 13.2 02:17:14 34° E 02:17:14 34° E 02:27:20 10° E visible
29 Oct 12.3 04:29:58 65° SW 04:31:53 68° SSW 04:55:03 10° SE visible
29 Oct 13.2 06:42:43 16° W 06:57:23 37° SW 07:17:13 10° SSE visible
30 Oct 13.1 02:37:22 40° ESE 02:37:22 40° ESE 02:49:17 10° ESE visible
30 Oct 12.4 04:50:06 55° WSW 04:53:21 60° SSW 05:16:05 10° SE visible
30 Oct 13.4 07:02:51 11° W 07:18:32 29° SW 07:36:29 10° S visible
31 Oct 12.9 02:57:31 45° ESE 02:57:31 45° ESE 03:11:05 10° ESE visible
31 Oct 12.5 05:10:16 46° WSW 05:14:47 51° SSW 05:36:47 10° SE visible
31 Oct 13.6 07:25:45 10° W 07:39:40 22° SW 07:54:53 10° S visible
01 Nov 12.8 03:17:42 49° SE 03:17:42 49° SE 03:32:43 10° ESE visible
01 Nov 12.7 05:30:27 37° WSW 05:36:09 43° SSW 05:57:05 10° SSE visible
01 Nov 11.6 20:23:44 10° S 20:25:34 15° SSE 20:25:34 15° SSE visible
